KF7ROW Weather Reports


time (UTC)temp
C
wind
direction
speed
KPH
gust
KPH
rain 1hr
cm
rain 24hr
cm
rain mn
cm
humidity
%
barometer
mb
20260503180328 25 262 1.6 3.2 0.00 0.00 0.00 50 1014.1
20260503175824 25 277 1.6 1.6 0.00 0.00 0.00 51 1014.2
20260503175323 25 263 1.6 1.6 0.00 0.00 0.00 52 1014.1
20260503174818 24 257 1.6 3.2 0.00 0.00 0.00 52 1014.3
20260503174316 24 339 4.8 4.8 0.00 0.00 0.00 53 1014.2
20260503173811 24 270 1.6 8.0 0.00 0.00 0.00 55 1014.2
20260503173308 23 166 1.6 4.8 0.00 0.00 0.00 62 1014.2
20260503172805 24 340 6.4 8.0 0.00 0.00 0.00 55 1014.2
20260503172305 23 263 1.6 3.2 0.00 0.00 0.00 57 1014.3
20260503171758 23 251 1.6 4.8 0.00 0.00 0.00 62 1014.2
20260503171255 23 354 4.8 9.7 0.00 0.00 0.00 57 1014.1
20260503170752 23 233 0.0 4.8 0.00 0.00 0.00 67 1014.1
20260503170249 22 197 0.0 0.0 0.00 0.00 0.00 68 1014.2
20260503160211 14 196 0.0 0.0 0.00 0.00 0.00 97 1014.4
20260503150641 10 202 0.0 1.6 0.00 0.00 0.00 99 1014.5
20260503150137 10 206 0.0 0.0 0.00 0.00 0.00 99 1014.6
20260503131031 8 199 0.0 0.0 0.00 0.00 0.00 99 1014.4
20260503130528 8 199 0.0 0.0 0.00 0.00 0.00 99 1014.5
20260503110419 9 200 0.0 0.0 0.00 0.00 0.00 99 1015.2
20260503090304 10 204 0.0 0.0 0.00 0.00 0.00 99 1015.9
20260503081231 10 205 0.0 0.0 0.00 0.00 0.00 99 1015.9
20260503080727 10 210 0.0 0.0 0.00 0.00 0.00 99 1016.0
20260503080224 10 210 0.0 0.0 0.00 0.00 0.00 99 1016.1
20260503072701 10 203 0.0 0.0 0.00 0.00 0.00 98 1016.4
20260503072158 10 203 0.0 0.0 0.00 0.00 0.00 98 1016.5
20260503071654 10 203 0.0 0.0 0.00 0.00 0.00 98 1016.5
20260503071151 11 203 0.0 0.0 0.00 0.00 0.00 98 1016.5
20260503070648 11 202 0.0 0.0 0.00 0.00 0.00 98 1016.6
20260503070146 11 205 0.0 0.0 0.00 0.00 0.00 98 1016.6
20260503060110 11 201 0.0 1.6 0.00 0.00 0.00 97 1016.7
20260503055102 11 222 0.0 1.6 0.00 0.00 0.00 96 1016.8
20260503054557 11 207 0.0 0.0 0.00 0.00 0.00 96 1017.0
20260503054055 11 213 0.0 0.0 0.00 0.00 0.00 96 1016.7
20260503053553 11 207 0.0 0.0 0.00 0.00 0.00 96 1016.8
20260503053050 11 209 0.0 0.0 0.00 0.00 0.00 95 1016.8
20260503052547 11 206 0.0 0.0 0.00 0.00 0.00 95 1016.9
20260503052043 12 206 0.0 0.0 0.00 0.00 0.00 95 1017.0
20260503051539 12 211 0.0 0.0 0.00 0.00 0.00 95 1017.0
20260503051037 12 208 0.0 0.0 0.00 0.00 0.00 94 1016.9
20260503050532 12 225 1.6 1.6 0.00 0.00 0.00 94 1017.0
20260503050030 12 201 0.0 0.0 0.00 0.00 0.00 94 1017.0
20260503045527 12 199 0.0 0.0 0.00 0.00 0.00 93 1017.1
20260503045024 12 213 0.0 0.0 0.00 0.00 0.00 93 1017.1
20260503044521 12 197 0.0 0.0 0.00 0.00 0.00 93 1017.1
20260503044019 12 203 0.0 0.0 0.00 0.00 0.00 93 1016.8
20260503043514 12 197 0.0 0.0 0.00 0.00 0.00 92 1016.8
20260503043011 12 195 0.0 0.0 0.00 0.00 0.00 92 1016.9
20260503042508 12 209 0.0 0.0 0.00 0.00 0.00 92 1016.7
20260503042004 13 232 0.0 1.6 0.00 0.00 0.00 92 1016.7
20260503041501 13 216 0.0 1.6 0.00 0.00 0.00 91 1016.5
20260503040959 13 207 0.0 0.0 0.00 0.00 0.00 91 1016.7
20260503040456 13 206 0.0 0.0 0.00 0.00 0.00 90 1016.7
20260503035953 13 207 0.0 0.0 0.00 0.00 0.00 90 1016.4
20260503035450 13 220 0.0 1.6 0.00 0.00 0.00 89 1016.3
20260503034948 13 231 1.6 3.2 0.00 0.00 0.00 89 1016.1
20260503034445 13 217 0.0 0.0 0.00 0.00 0.00 88 1016.3
20260503033942 13 209 0.0 0.0 0.00 0.00 0.00 88 1016.3
20260503033439 14 207 0.0 0.0 0.00 0.00 0.00 87 1016.2
20260503032937 14 204 0.0 1.6 0.00 0.00 0.00 86 1016.3
20260503032435 14 240 1.6 4.8 0.00 0.00 0.00 86 1016.4
20260503031932 14 264 4.8 4.8 0.00 0.00 0.00 85 1016.1
20260503031430 15 261 3.2 4.8 0.00 0.00 0.00 86 1016.1
20260503030927 15 248 4.8 4.8 0.00 0.00 0.00 85 1016.2
20260503030423 15 263 4.8 4.8 0.00 0.00 0.00 84 1016.2
20260503025920 15 240 1.6 3.2 0.00 0.00 0.00 84 1016.3
20260503025417 15 271 4.8 4.8 0.00 0.00 0.00 84 1016.2
20260503024914 15 244 3.2 4.8 0.00 0.00 0.00 84 1016.3
20260503024411 15 258 4.8 8.0 0.00 0.00 0.00 83 1016.4
20260503023908 15 266 6.4 8.0 0.00 0.00 0.00 83 1016.6
20260503023405 15 254 4.8 4.8 0.00 0.00 0.00 84 1016.5
20260503022901 15 253 3.2 4.8 0.00 0.00 0.00 83 1016.7
20260503022356 15 250 3.2 4.8 0.00 0.00 0.00 83 1016.6
20260503021853 15 272 6.4 8.0 0.00 0.00 0.00 83 1016.6
20260503021349 15 257 4.8 4.8 0.00 0.00 0.00 83 1016.6
20260503020846 15 284 4.8 8.0 0.00 0.00 0.00 83 1016.6
20260503020344 15 258 4.8 4.8 0.00 0.00 0.00 80 1016.5
20260503015840 15 252 3.2 3.2 0.00 0.00 0.00 83 1016.6
20260503015337 15 265 6.4 8.0 0.00 0.00 0.00 83 1016.4
20260503014833 15 275 8.0 9.7 0.00 0.00 0.00 82 1016.4
20260503014331 15 250 4.8 9.7 0.00 0.00 0.00 81 1016.6
20260503013828 15 259 6.4 9.7 0.00 0.00 0.00 80 1016.4
20260503013325 15 243 8.0 9.7 0.00 0.00 0.00 81 1016.3
20260503012822 15 263 6.4 8.0 0.00 0.00 0.00 82 1016.4
20260503012320 15 259 8.0 9.7 0.00 0.00 0.00 81 1016.5
20260503011817 15 274 8.0 9.7 0.00 0.00 0.00 80 1016.5
20260503011314 15 267 8.0 9.7 0.00 0.00 0.00 81 1016.6
20260503010810 15 259 9.7 11.3 0.00 0.00 0.00 81 1016.4
20260503010307 15 286 11.3 12.9 0.00 0.00 0.00 81 1016.5
20260503005804 15 256 8.0 11.3 0.00 0.00 0.00 82 1016.5
20260503005304 15 265 11.3 12.9 0.00 0.00 0.00 80 1016.3
20260503004757 15 265 11.3 12.9 0.00 0.00 0.00 81 1016.4
20260503004255 15 263 9.7 14.5 0.00 0.00 0.00 82 1016.5
20260503003752 15 261 12.9 14.5 0.00 0.00 0.00 82 1016.8
20260503003249 15 265 12.9 14.5 0.00 0.00 0.00 82 1016.4
20260503002746 15 264 16.1 16.1 0.00 0.00 0.00 82 1016.5
20260503002243 15 260 11.3 14.5 0.00 0.00 0.00 80 1016.5
20260503001739 14 244 11.3 16.1 0.00 0.00 0.00 83 1016.5
20260503001235 14 261 14.5 16.1 0.00 0.00 0.00 82 1016.4
20260503000734 14 260 12.9 14.5 0.00 0.00 0.00 84 1016.6
20260503000233 14 261 12.9 16.1 0.00 0.00 0.00 82 1016.7
20260502235727 14 261 12.9 16.1 0.00 0.00 0.00 84 1016.6
20260502235225 13 257 14.5 16.1 0.00 0.00 0.00 85 1016.8
20260502234721 13 237 14.5 16.1 0.00 0.00 0.00 84 1016.9
20260502234219 14 255 14.5 14.5 0.00 0.00 0.00 83 1016.8
20260502233714 14 251 14.5 17.7 0.00 0.00 0.00 84 1016.9
20260502233211 15 263 14.5 16.1 0.00 0.00 0.00 83 1016.8
20260502232707 15 285 12.9 16.1 0.00 0.00 0.00 82 1016.9
20260502232205 15 247 14.5 14.5 0.00 0.00 0.00 80 1017.1
20260502231701 14 256 12.9 14.5 0.00 0.00 0.00 83 1017.1
20260502231159 15 281 14.5 14.5 0.00 0.00 0.00 82 1017.0
20260502230657 15 265 14.5 16.1 0.00 0.00 0.00 81 1017.1
20260502230156 14 267 12.9 14.5 0.00 0.00 0.00 82 1017.1
20260502225650 15 260 12.9 14.5 0.00 0.00 0.00 83 1017.2
20260502225149 15 265 12.9 14.5 0.00 0.00 0.00 83 1017.2
20260502224644 15 263 16.1 16.1 0.00 0.00 0.00 82 1017.3
20260502224141 15 276 14.5 16.1 0.00 0.00 0.00 82 1017.6
20260502223639 15 267 11.3 14.5 0.00 0.00 0.00 82 1017.5
20260502223137 14 263 14.5 17.7 0.00 0.00 0.00 85 1017.6
20260502222634 14 257 12.9 16.1 0.00 0.00 0.00 82 1017.7
20260502222131 15 264 14.5 16.1 0.00 0.00 0.00 82 1017.8
20260502221627 15 259 14.5 17.7 0.00 0.00 0.00 83 1017.9
20260502221124 15 262 14.5 16.1 0.00 0.00 0.00 81 1017.7
20260502220620 14 261 11.3 16.1 0.00 0.00 0.00 83 1017.9
20260502220116 14 245 11.3 14.5 0.00 0.00 0.00 83 1017.7
20260502215614 14 249 16.1 17.7 0.00 0.00 0.00 84 1017.7
20260502215110 14 254 16.1 16.1 0.00 0.00 0.00 83 1017.8
20260502214607 15 250 14.5 17.7 0.00 0.00 0.00 84 1017.9
20260502214105 15 228 11.3 14.5 0.00 0.00 0.00 82 1017.8
20260502213601 15 259 11.3 14.5 0.00 0.00 0.00 81 1017.8
20260502213059 15 224 9.7 16.1 0.00 0.00 0.00 81 1017.7
20260502212558 15 261 9.7 11.3 0.00 0.00 0.00 80 1017.7
20260502212055 15 262 11.3 12.9 0.00 0.00 0.00 80 1017.7
20260502211550 15 266 9.7 11.3 0.00 0.00 0.00 80 1018.0
20260502211048 15 258 8.0 9.7 0.00 0.00 0.00 80 1018.0
20260502210545 15 240 6.4 9.7 0.00 0.00 0.00 81 1018.0
20260502210042 15 259 8.0 8.0 0.00 0.00 0.00 79 1018.1
20260502205538 15 295 6.4 8.0 0.00 0.00 0.00 81 1018.1
20260502205036 15 254 8.0 9.7 0.00 0.00 0.00 81 1018.5
20260502204532 15 268 6.4 8.0 0.00 0.00 0.00 79 1018.4
20260502204030 15 255 4.8 4.8 0.00 0.00 0.00 81 1018.4
20260502203527 14 254 8.0 9.7 0.00 0.00 0.00 81 1018.4
20260502203024 14 252 8.0 9.7 0.00 0.00 0.00 81 1018.6
20260502202520 14 281 8.0 9.7 0.00 0.00 0.00 81 1018.7
20260502202019 13 246 4.8 12.9 0.00 0.00 0.00 82 1018.8
20260502201514 13 242 9.7 11.3 0.00 0.00 0.00 83 1018.9
20260502201011 13 258 9.7 12.9 0.00 0.00 0.00 85 1019.0
20260502200507 13 251 9.7 11.3 0.00 0.00 0.00 85 1019.1
20260502200005 13 246 8.0 11.3 0.00 0.00 0.00 86 1019.4
20260502195502 12 253 6.4 9.7 0.00 0.00 0.00 86 1019.4
20260502194958 12 255 9.7 11.3 0.00 0.00 0.00 86 1019.4
20260502194455 12 247 11.3 12.9 0.00 0.00 0.00 86 1019.5
20260502193950 12 284 6.4 11.3 0.00 0.00 0.00 87 1019.4
20260502193448 12 281 6.4 11.3 0.00 0.00 0.00 87 1019.4
20260502192944 12 259 6.4 8.0 0.00 0.00 0.00 88 1019.3
20260502192441 12 233 4.8 4.8 0.00 0.00 0.00 88 1019.4
20260502191938 12 258 4.8 8.0 0.00 0.00 0.00 86 1019.5
20260502191435 13 244 8.0 9.7 0.00 0.00 0.00 84 1019.5
20260502190933 13 261 6.4 11.3 0.00 0.00 0.00 82 1019.6
20260502190430 13 256 4.8 8.0 0.00 0.00 0.00 81 1019.7
20260502185926 13 229 1.6 3.2 0.00 0.00 0.00 80 1019.7
20260502185421 13 235 4.8 8.0 0.00 0.00 0.00 80 1020.0
20260502184918 13 250 6.4 8.0 0.00 0.00 0.00 79 1019.7
20260502184409 13 252 1.6 8.0 0.00 0.00 0.00 79 1019.9
20260502183905 13 241 6.4 8.0 0.00 0.00 0.00 79 1019.8
20260502183402 13 247 8.0 9.7 0.00 0.00 0.00 79 1019.8
20260502182857 13 68 1.6 3.2 0.00 0.00 0.00 75 1020.1
20260502182353 13 250 4.8 8.0 0.00 0.00 0.00 79 1020.0
20260502181849 13 241 4.8 8.0 0.00 0.00 0.00 75 1019.9
20260502181348 13 215 1.6 3.2 0.00 0.00 0.00 76 1020.1
20260502180845 13 220 1.6 3.2 0.00 0.00 0.00 78 1020.2